Tracking 19817 objects as of 19-Aug-2019
HD Live streaming from Space Station
objects crossing your sky now

COSMOS 2251 DEB

Track COSMOS 2251 DEB now!
10-day predictions


NORAD ID: 35019
Int'l Code: 1993-036AGG
Perigee: 636.8 km
Apogee: 675.3 km
Inclination: 74.0 °
Period: 97.7 minutes
Semi major axis: 7027 km
RCS: 0.0084 m2 (small)
Launch date: June 16, 1993
Source: Commonwealth of Independent States (former USSR) (CIS)
Launch site: PLESETSK MISSILE AND SPACE COMPLEX (PKMTR)

Note: This is SATELLITE DEBRIS
aabbcc
Your satellite tracking list
Your tracking list is empty




NASA's NSSDC Master Catalog

Two Line Element Set (TLE):
1 35019U 93036AGG 19230.84962566 +.00001289 +00000-0 +20091-3 0  9995
2 35019 074.0100 289.8409 0027402 261.5222 098.2845 14.73824743549936
Source of the keplerian elements: AFSPC